﻿測定場所 (Monitoring sites),日付 (Measurement date),時間 (Measurement time),線量率 最大値 (max) μGy/h,線量率 最小値 (min) μGy/h,線量率 平均値 (average) μGy/h,
江戸川 (Edogawa),2013-10-27,23:01～24:00,0.0871,0.0759,0.0810,
江戸川 (Edogawa),2013-10-27,22:01～23:00,0.0861,0.0744,0.0812,
江戸川 (Edogawa),2013-10-27,21:01～22:00,0.0863,0.0751,0.0813,
江戸川 (Edogawa),2013-10-27,20:01～21:00,0.0860,0.0746,0.0811,
江戸川 (Edogawa),2013-10-27,19:01～20:00,0.0866,0.0762,0.0816,
江戸川 (Edogawa),2013-10-27,18:01～19:00,0.0862,0.0741,0.0813,
江戸川 (Edogawa),2013-10-27,17:01～18:00,0.0857,0.0751,0.0809,
江戸川 (Edogawa),2013-10-27,16:01～17:00,0.0856,0.0748,0.0812,
江戸川 (Edogawa),2013-10-27,15:01～16:00,0.0880,0.0733,0.0813,
江戸川 (Edogawa),2013-10-27,14:01～15:00,0.0864,0.0748,0.0813,
江戸川 (Edogawa),2013-10-27,13:01～14:00,0.0877,0.0763,0.0815,
江戸川 (Edogawa),2013-10-27,12:01～13:00,0.0869,0.0762,0.0812,
江戸川 (Edogawa),2013-10-27,11:01～12:00,0.0890,0.0750,0.0813,
江戸川 (Edogawa),2013-10-27,10:01～11:00,0.0855,0.0774,0.0814,
江戸川 (Edogawa),2013-10-27,09:01～10:00,0.0856,0.0752,0.0817,
江戸川 (Edogawa),2013-10-27,08:01～09:00,0.0862,0.0760,0.0807,
江戸川 (Edogawa),2013-10-27,07:01～08:00,0.0862,0.0744,0.0811,
江戸川 (Edogawa),2013-10-27,06:01～07:00,0.0847,0.0737,0.0807,
江戸川 (Edogawa),2013-10-27,05:01～06:00,0.0859,0.0746,0.0809,
江戸川 (Edogawa),2013-10-27,04:01～05:00,0.0876,0.0746,0.0804,
江戸川 (Edogawa),2013-10-27,03:01～04:00,0.0867,0.0769,0.0810,
江戸川 (Edogawa),2013-10-27,02:01～03:00,0.0850,0.0757,0.0810,
江戸川 (Edogawa),2013-10-27,01:01～02:00,0.0854,0.0748,0.0800,
江戸川 (Edogawa),2013-10-27,00:01～01:00,0.0868,0.0743,0.0805,
江戸川 (Edogawa),2013-10-26,23:01～24:00,0.0849,0.0734,0.0808,
江戸川 (Edogawa),2013-10-26,22:01～23:00,0.0859,0.0749,0.0799,
江戸川 (Edogawa),2013-10-26,21:01～22:00,0.0860,0.0759,0.0801,
江戸川 (Edogawa),2013-10-26,20:01～21:00,0.0845,0.0746,0.0799,
江戸川 (Edogawa),2013-10-26,19:01～20:00,0.0854,0.0734,0.0802,
江戸川 (Edogawa),2013-10-26,18:01～19:00,0.0848,0.0743,0.0795,
江戸川 (Edogawa),2013-10-26,17:01～18:00,0.0871,0.0742,0.0797,
江戸川 (Edogawa),2013-10-26,16:01～17:00,0.0867,0.0742,0.0792,
江戸川 (Edogawa),2013-10-26,15:01～16:00,0.0850,0.0738,0.0796,
江戸川 (Edogawa),2013-10-26,14:01～15:00,0.0890,0.0757,0.0821,
江戸川 (Edogawa),2013-10-26,13:01～14:00,0.0912,0.0779,0.0838,
江戸川 (Edogawa),2013-10-26,12:01～13:00,0.0937,0.0816,0.0879,
江戸川 (Edogawa),2013-10-26,11:01～12:00,0.0937,0.0811,0.0874,
江戸川 (Edogawa),2013-10-26,10:01～11:00,0.0874,0.0739,0.0820,
江戸川 (Edogawa),2013-10-26,09:01～10:00,0.0871,0.0741,0.0808,
江戸川 (Edogawa),2013-10-26,08:01～09:00,0.0908,0.0793,0.0838,
江戸川 (Edogawa),2013-10-26,07:01～08:00,0.0883,0.0779,0.0832,
江戸川 (Edogawa),2013-10-26,06:01～07:00,0.0897,0.0784,0.0843,
江戸川 (Edogawa),2013-10-26,05:01～06:00,0.0897,0.0745,0.0837,
江戸川 (Edogawa),2013-10-26,04:01～05:00,0.0875,0.0777,0.0826,
江戸川 (Edogawa),2013-10-26,03:01～04:00,0.0877,0.0764,0.0824,
江戸川 (Edogawa),2013-10-26,02:01～03:00,0.0906,0.0756,0.0826,
江戸川 (Edogawa),2013-10-26,01:01～02:00,0.0871,0.0769,0.0815,
江戸川 (Edogawa),2013-10-26,00:01～01:00,0.0895,0.0750,0.0805,
江戸川 (Edogawa),2013-10-25,23:01～24:00,0.0893,0.0747,0.0822,
江戸川 (Edogawa),2013-10-25,22:01～23:00,0.0889,0.0778,0.0831,
江戸川 (Edogawa),2013-10-25,21:01～22:00,0.0881,0.0765,0.0822,
江戸川 (Edogawa),2013-10-25,20:01～21:00,0.0858,0.0757,0.0808,
江戸川 (Edogawa),2013-10-25,19:01～20:00,0.0871,0.0765,0.0816,
江戸川 (Edogawa),2013-10-25,18:01～19:00,0.0869,0.0768,0.0815,
江戸川 (Edogawa),2013-10-25,17:01～18:00,0.0850,0.0743,0.0810,
江戸川 (Edogawa),2013-10-25,16:01～17:00,0.0870,0.0763,0.0807,
江戸川 (Edogawa),2013-10-25,15:01～16:00,0.0870,0.0757,0.0817,
江戸川 (Edogawa),2013-10-25,14:01～15:00,0.0872,0.0763,0.0812,
江戸川 (Edogawa),2013-10-25,13:01～14:00,0.0888,0.0744,0.0815,
江戸川 (Edogawa),2013-10-25,12:01～13:00,0.0880,0.0761,0.0819,
江戸川 (Edogawa),2013-10-25,11:01～12:00,0.0884,0.0773,0.0834,
江戸川 (Edogawa),2013-10-25,10:01～11:00,0.0882,0.0780,0.0837,
江戸川 (Edogawa),2013-10-25,09:01～10:00,0.0894,0.0781,0.0831,
江戸川 (Edogawa),2013-10-25,08:01～09:00,0.0883,0.0782,0.0826,
江戸川 (Edogawa),2013-10-25,07:01～08:00,0.0880,0.0755,0.0815,
江戸川 (Edogawa),2013-10-25,06:01～07:00,0.0884,0.0749,0.0814,
江戸川 (Edogawa),2013-10-25,05:01～06:00,0.0862,0.0765,0.0807,
江戸川 (Edogawa),2013-10-25,04:01～05:00,0.0857,0.0741,0.0807,
江戸川 (Edogawa),2013-10-25,03:01～04:00,0.0887,0.0742,0.0813,
江戸川 (Edogawa),2013-10-25,02:01～03:00,0.0873,0.0751,0.0807,
江戸川 (Edogawa),2013-10-25,01:01～02:00,0.0876,0.0751,0.0812,
江戸川 (Edogawa),2013-10-25,00:01～01:00,0.0894,0.0767,0.0827,
江戸川 (Edogawa),2013-10-24,23:01～24:00,0.0878,0.0757,0.0824,
江戸川 (Edogawa),2013-10-24,22:01～23:00,0.0865,0.0763,0.0816,
江戸川 (Edogawa),2013-10-24,21:01～22:00,0.0854,0.0749,0.0814,
江戸川 (Edogawa),2013-10-24,20:01～21:00,0.0897,0.0780,0.0819,
江戸川 (Edogawa),2013-10-24,19:01～20:00,0.0861,0.0768,0.0814,
江戸川 (Edogawa),2013-10-24,18:01～19:00,0.0870,0.0743,0.0812,
江戸川 (Edogawa),2013-10-24,17:01～18:00,0.0864,0.0727,0.0810,
江戸川 (Edogawa),2013-10-24,16:01～17:00,0.0884,0.0765,0.0813,
江戸川 (Edogawa),2013-10-24,15:01～16:00,0.0861,0.0736,0.0810,
江戸川 (Edogawa),2013-10-24,14:01～15:00,0.0857,0.0758,0.0810,
江戸川 (Edogawa),2013-10-24,13:01～14:00,0.0860,0.0752,0.0815,
江戸川 (Edogawa),2013-10-24,12:01～13:00,0.0903,0.0763,0.0831,
江戸川 (Edogawa),2013-10-24,11:01～12:00,0.0888,0.0767,0.0832,
江戸川 (Edogawa),2013-10-24,10:01～11:00,0.0872,0.0772,0.0826,
江戸川 (Edogawa),2013-10-24,09:01～10:00,0.0879,0.0747,0.0821,
江戸川 (Edogawa),2013-10-24,08:01～09:00,0.0863,0.0759,0.0812,
江戸川 (Edogawa),2013-10-24,07:01～08:00,0.0882,0.0751,0.0816,
江戸川 (Edogawa),2013-10-24,06:01～07:00,0.0893,0.0731,0.0808,
江戸川 (Edogawa),2013-10-24,05:01～06:00,0.0866,0.0750,0.0809,
江戸川 (Edogawa),2013-10-24,04:01～05:00,0.0884,0.0770,0.0817,
江戸川 (Edogawa),2013-10-24,03:01～04:00,0.0856,0.0749,0.0808,
江戸川 (Edogawa),2013-10-24,02:01～03:00,0.0864,0.0732,0.0807,
江戸川 (Edogawa),2013-10-24,01:01～02:00,0.0877,0.0755,0.0806,
江戸川 (Edogawa),2013-10-24,00:01～01:00,0.0861,0.0758,0.0816,
江戸川 (Edogawa),2013-10-23,23:01～24:00,0.0879,0.0769,0.0817,
江戸川 (Edogawa),2013-10-23,22:01～23:00,0.0898,0.0769,0.0817,
江戸川 (Edogawa),2013-10-23,21:01～22:00,0.0872,0.0771,0.0820,
江戸川 (Edogawa),2013-10-23,20:01～21:00,0.0848,0.0751,0.0804,
江戸川 (Edogawa),2013-10-23,19:01～20:00,0.0877,0.0737,0.0813,
江戸川 (Edogawa),2013-10-23,18:01～19:00,0.0876,0.0748,0.0821,
江戸川 (Edogawa),2013-10-23,17:01～18:00,0.0879,0.0750,0.0814,
江戸川 (Edogawa),2013-10-23,16:01～17:00,0.0858,0.0748,0.0813,
江戸川 (Edogawa),2013-10-23,15:01～16:00,0.0894,0.0764,0.0821,
江戸川 (Edogawa),2013-10-23,14:01～15:00,0.0877,0.0772,0.0819,
江戸川 (Edogawa),2013-10-23,13:01～14:00,0.0875,0.0757,0.0820,
江戸川 (Edogawa),2013-10-23,12:01～13:00,0.0862,0.0762,0.0816,
江戸川 (Edogawa),2013-10-23,11:01～12:00,0.0867,0.0754,0.0814,
江戸川 (Edogawa),2013-10-23,10:01～11:00,0.0859,0.0760,0.0812,
江戸川 (Edogawa),2013-10-23,09:01～10:00,0.0891,0.0767,0.0821,
江戸川 (Edogawa),2013-10-23,08:01～09:00,0.0871,0.0759,0.0811,
江戸川 (Edogawa),2013-10-23,07:01～08:00,0.0897,0.0738,0.0808,
江戸川 (Edogawa),2013-10-23,06:01～07:00,0.0909,0.0764,0.0817,
江戸川 (Edogawa),2013-10-23,05:01～06:00,0.0861,0.0744,0.0810,
江戸川 (Edogawa),2013-10-23,04:01～05:00,0.0861,0.0762,0.0811,
江戸川 (Edogawa),2013-10-23,03:01～04:00,0.0859,0.0760,0.0806,
江戸川 (Edogawa),2013-10-23,02:01～03:00,0.0879,0.0743,0.0808,
江戸川 (Edogawa),2013-10-23,01:01～02:00,0.0858,0.0758,0.0811,
江戸川 (Edogawa),2013-10-23,00:01～01:00,0.0854,0.0759,0.0814,
江戸川 (Edogawa),2013-10-22,23:01～24:00,0.0890,0.0735,0.0810,
江戸川 (Edogawa),2013-10-22,22:01～23:00,0.0889,0.0753,0.0823,
江戸川 (Edogawa),2013-10-22,21:01～22:00,0.0869,0.0740,0.0807,
江戸川 (Edogawa),2013-10-22,20:01～21:00,0.0873,0.0754,0.0812,
江戸川 (Edogawa),2013-10-22,19:01～20:00,0.0871,0.0763,0.0814,
江戸川 (Edogawa),2013-10-22,18:01～19:00,0.0869,0.0767,0.0812,
江戸川 (Edogawa),2013-10-22,17:01～18:00,0.0852,0.0739,0.0808,
江戸川 (Edogawa),2013-10-22,16:01～17:00,0.0863,0.0767,0.0811,
江戸川 (Edogawa),2013-10-22,15:01～16:00,0.0874,0.0764,0.0808,
江戸川 (Edogawa),2013-10-22,14:01～15:00,0.0875,0.0767,0.0815,
江戸川 (Edogawa),2013-10-22,13:01～14:00,0.0861,0.0769,0.0811,
江戸川 (Edogawa),2013-10-22,12:01～13:00,0.0867,0.0741,0.0810,
江戸川 (Edogawa),2013-10-22,11:01～12:00,0.0866,0.0758,0.0819,
江戸川 (Edogawa),2013-10-22,10:01～11:00,0.0867,0.0763,0.0808,
江戸川 (Edogawa),2013-10-22,09:01～10:00,0.0868,0.0753,0.0810,
江戸川 (Edogawa),2013-10-22,08:01～09:00,0.0858,0.0778,0.0812,
江戸川 (Edogawa),2013-10-22,07:01～08:00,0.0889,0.0746,0.0813,
江戸川 (Edogawa),2013-10-22,06:01～07:00,0.0866,0.0756,0.0808,
江戸川 (Edogawa),2013-10-22,05:01～06:00,0.0869,0.0773,0.0812,
江戸川 (Edogawa),2013-10-22,04:01～05:00,0.0849,0.0755,0.0806,
江戸川 (Edogawa),2013-10-22,03:01～04:00,0.0852,0.0744,0.0812,
江戸川 (Edogawa),2013-10-22,02:01～03:00,0.0860,0.0754,0.0810,
江戸川 (Edogawa),2013-10-22,01:01～02:00,0.0868,0.0746,0.0812,
江戸川 (Edogawa),2013-10-22,00:01～01:00,0.0881,0.0754,0.0815,
江戸川 (Edogawa),2013-10-21,23:01～24:00,0.0873,0.0741,0.0809,
江戸川 (Edogawa),2013-10-21,22:01～23:00,0.0864,0.0759,0.0811,
江戸川 (Edogawa),2013-10-21,21:01～22:00,0.0864,0.0747,0.0808,
江戸川 (Edogawa),2013-10-21,20:01～21:00,0.0867,0.0750,0.0813,
江戸川 (Edogawa),2013-10-21,19:01～20:00,0.0884,0.0780,0.0812,
江戸川 (Edogawa),2013-10-21,18:01～19:00,0.0850,0.0742,0.0806,
江戸川 (Edogawa),2013-10-21,17:01～18:00,0.0868,0.0754,0.0811,
江戸川 (Edogawa),2013-10-21,16:01～17:00,0.0859,0.0761,0.0810,
江戸川 (Edogawa),2013-10-21,15:01～16:00,0.0876,0.0750,0.0808,
江戸川 (Edogawa),2013-10-21,14:01～15:00,0.0853,0.0758,0.0808,
江戸川 (Edogawa),2013-10-21,13:01～14:00,0.0868,0.0757,0.0810,
江戸川 (Edogawa),2013-10-21,12:01～13:00,0.0863,0.0752,0.0809,
江戸川 (Edogawa),2013-10-21,11:01～12:00,0.0870,0.0765,0.0815,
江戸川 (Edogawa),2013-10-21,10:01～11:00,0.0874,0.0763,0.0815,
江戸川 (Edogawa),2013-10-21,09:01～10:00,0.0860,0.0744,0.0805,
江戸川 (Edogawa),2013-10-21,08:01～09:00,0.0849,0.0739,0.0799,
江戸川 (Edogawa),2013-10-21,07:01～08:00,0.0859,0.0735,0.0800,
江戸川 (Edogawa),2013-10-21,06:01～07:00,0.0849,0.0742,0.0795,
江戸川 (Edogawa),2013-10-21,05:01～06:00,0.0867,0.0748,0.0800,
江戸川 (Edogawa),2013-10-21,04:01～05:00,0.0834,0.0741,0.0790,
江戸川 (Edogawa),2013-10-21,03:01～04:00,0.0835,0.0739,0.0795,
江戸川 (Edogawa),2013-10-21,02:01～03:00,0.0867,0.0735,0.0797,
江戸川 (Edogawa),2013-10-21,01:01～02:00,0.0830,0.0736,0.0790,
江戸川 (Edogawa),2013-10-21,00:01～01:00,0.0856,0.0738,0.0800,
